owner,sensor,date,latitude,longitude,vertical_datum,wind_speed,wind_to_direction,wind_speed_of_gust,qcFlag 
WAVCIS,ioos:station:WAVCIS:CSI09:1,2017-02-01T00:00:00Z,29.1015,-89.9782,0.0,4.341,213.0,,'11111222,11111222,99999999' 
WAVCIS,ioos:station:WAVCIS:CSI09:1,2017-02-01T01:00:00Z,29.1015,-89.9782,0.0,4.605,215.0,,'11111222,11111222,99999999' 
WAVCIS,ioos:station:WAVCIS:CSI09:1,2017-02-01T02:00:00Z,29.1015,-89.9782,0.0,3.019,202.0,,'11111222,11111222,99999999' 
WAVCIS,ioos:station:WAVCIS:CSI09:1,2017-02-01T03:00:00Z,29.1015,-89.9782,0.0,5.457,175.0,,'11111222,11111222,99999999' 
WAVCIS,ioos:station:WAVCIS:CSI09:1,2017-02-01T04:00:00Z,29.1015,-89.9782,0.0,5.314,173.0,,'11111222,11111222,99999999' 
WAVCIS,ioos:station:WAVCIS:CSI09:1,2017-02-01T05:00:00Z,29.1015,-89.9782,0.0,5.947,173.0,,'11111222,11111222,99999999' 
WAVCIS,ioos:station:WAVCIS:CSI09:1,2017-02-01T06:00:00Z,29.1015,-89.9782,0.0,7.06,176.0,,'11111222,11111222,99999999' 
WAVCIS,ioos:station:WAVCIS:CSI09:1,2017-02-01T07:00:00Z,29.1015,-89.9782,0.0,5.843,180.0,,'11111222,11111222,99999999' 
WAVCIS,ioos:station:WAVCIS:CSI09:1,2017-02-01T08:00:00Z,29.1015,-89.9782,0.0,4.449,188.0,,'11111222,11111222,99999999' 
WAVCIS,ioos:station:WAVCIS:CSI09:1,2017-02-01T09:00:00Z,29.1015,-89.9782,0.0,4.009,180.0,,'11111222,11111222,99999999' 
WAVCIS,ioos:station:WAVCIS:CSI09:1,2017-02-01T10:00:00Z,29.1015,-89.9782,0.0,3.738,177.0,,'11111222,11111222,99999999' 
WAVCIS,ioos:station:WAVCIS:CSI09:1,2017-02-01T11:00:00Z,29.1015,-89.9782,0.0,2.758,182.0,,'11111222,11111222,99999999' 
WAVCIS,ioos:station:WAVCIS:CSI09:1,2017-02-01T12:00:00Z,29.1015,-89.9782,0.0,4.136,171.0,,'11111222,11111222,99999999' 
WAVCIS,ioos:station:WAVCIS:CSI09:1,2017-02-01T13:00:00Z,29.1015,-89.9782,0.0,3.47,184.0,,'11111222,11111222,99999999' 
WAVCIS,ioos:station:WAVCIS:CSI09:1,2017-02-01T14:00:00Z,29.1015,-89.9782,0.0,4.791,176.0,,'11111222,11111222,99999999' 
WAVCIS,ioos:station:WAVCIS:CSI09:1,2017-02-01T15:00:00Z,29.1015,-89.9782,0.0,5.109,173.0,,'11111222,11111222,99999999' 
WAVCIS,ioos:station:WAVCIS:CSI09:1,2017-02-01T16:00:00Z,29.1015,-89.9782,0.0,5.779,170.0,,'11111222,11111222,99999999' 
WAVCIS,ioos:station:WAVCIS:CSI09:1,2017-02-01T17:00:00Z,29.1015,-89.9782,0.0,5.744,173.0,,'11111222,11111222,99999999' 
WAVCIS,ioos:station:WAVCIS:CSI09:1,2017-02-01T18:00:00Z,29.1015,-89.9782,0.0,5.171,174.0,,'11111222,11111222,99999999' 
WAVCIS,ioos:station:WAVCIS:CSI09:1,2017-02-01T19:00:00Z,29.1015,-89.9782,0.0,3.161,183.0,,'11111222,11111222,99999999' 
WAVCIS,ioos:station:WAVCIS:CSI09:1,2017-02-01T20:00:00Z,29.1015,-89.9782,0.0,2.776,183.0,,'11111222,11111222,99999999' 
WAVCIS,ioos:station:WAVCIS:CSI09:1,2017-02-01T21:00:00Z,29.1015,-89.9782,0.0,3.253,172.0,,'11111222,11111222,99999999' 
WAVCIS,ioos:station:WAVCIS:CSI09:1,2017-02-01T22:00:00Z,29.1015,-89.9782,0.0,4.078,175.0,,'11111222,11111222,99999999' 
WAVCIS,ioos:station:WAVCIS:CSI09:1,2017-02-01T23:00:00Z,29.1015,-89.9782,0.0,4.061,169.0,,'11111222,11111222,99999999' 
WAVCIS,ioos:station:WAVCIS:CSI09:1,2017-02-02T00:00:00Z,29.1015,-89.9782,0.0,3.549,167.0,,'11111222,11111222,99999999' 
WAVCIS,ioos:station:WAVCIS:CSI09:1,2017-02-02T01:00:00Z,29.1015,-89.9782,0.0,3.546,160.0,,'11111222,11111222,99999999' 
WAVCIS,ioos:station:WAVCIS:CSI09:1,2017-02-02T02:00:00Z,29.1015,-89.9782,0.0,3.985,157.0,,'11111222,11111222,99999999' 
WAVCIS,ioos:station:WAVCIS:CSI09:1,2017-02-02T03:00:00Z,29.1015,-89.9782,0.0,4.502,162.0,,'11111222,11111222,99999999' 
WAVCIS,ioos:station:WAVCIS:CSI09:1,2017-02-02T04:00:00Z,29.1015,-89.9782,0.0,4.575,168.0,,'11111222,11111222,99999999' 
WAVCIS,ioos:station:WAVCIS:CSI09:1,2017-02-02T05:00:00Z,29.1015,-89.9782,0.0,3.913,160.0,,'11111222,11111222,99999999' 
WAVCIS,ioos:station:WAVCIS:CSI09:1,2017-02-02T06:00:00Z,29.1015,-89.9782,0.0,3.795,156.0,,'11111222,11111222,99999999' 
WAVCIS,ioos:station:WAVCIS:CSI09:1,2017-02-02T07:00:00Z,29.1015,-89.9782,0.0,2.606,143.0,,'11111222,11111222,99999999' 
WAVCIS,ioos:station:WAVCIS:CSI09:1,2017-02-02T08:00:00Z,29.1015,-89.9782,0.0,3.168,131.0,,'11111222,11111222,99999999' 
WAVCIS,ioos:station:WAVCIS:CSI09:1,2017-02-02T09:00:00Z,29.1015,-89.9782,0.0,3.531,117.0,,'11111222,11111222,99999999' 
WAVCIS,ioos:station:WAVCIS:CSI09:1,2017-02-02T10:00:00Z,29.1015,-89.9782,0.0,3.371,124.0,,'11111222,11111222,99999999' 
WAVCIS,ioos:station:WAVCIS:CSI09:1,2017-02-02T11:00:00Z,29.1015,-89.9782,0.0,3.209,119.0,,'11111222,11111222,99999999' 
WAVCIS,ioos:station:WAVCIS:CSI09:1,2017-02-02T12:00:00Z,29.1015,-89.9782,0.0,2.486,103.0,,'11111222,11111222,99999999' 
WAVCIS,ioos:station:WAVCIS:CSI09:1,2017-02-02T13:00:00Z,29.1015,-89.9782,0.0,3.38,115.0,,'11111222,11111222,99999999' 
WAVCIS,ioos:station:WAVCIS:CSI09:1,2017-02-02T14:00:00Z,29.1015,-89.9782,0.0,3.663,117.0,,'11111222,11111222,99999999' 
WAVCIS,ioos:station:WAVCIS:CSI09:1,2017-02-02T15:00:00Z,29.1015,-89.9782,0.0,2.723,107.0,,'11111222,11111222,99999999' 
WAVCIS,ioos:station:WAVCIS:CSI09:1,2017-02-02T16:00:00Z,29.1015,-89.9782,0.0,2.99,109.0,,'11111222,11111222,99999999' 
WAVCIS,ioos:station:WAVCIS:CSI09:1,2017-02-02T17:00:00Z,29.1015,-89.9782,0.0,1.891,105.0,,'11111222,11111222,99999999' 
WAVCIS,ioos:station:WAVCIS:CSI09:1,2017-02-02T18:00:00Z,29.1015,-89.9782,0.0,1.504,101.0,,'11111222,11111222,99999999' 
WAVCIS,ioos:station:WAVCIS:CSI09:1,2017-02-02T19:00:00Z,29.1015,-89.9782,0.0,1.744,105.0,,'11111222,11111222,99999999' 
WAVCIS,ioos:station:WAVCIS:CSI09:1,2017-02-02T20:00:00Z,29.1015,-89.9782,0.0,2.203,110.0,,'11111222,11111222,99999999' 
WAVCIS,ioos:station:WAVCIS:CSI09:1,2017-02-02T21:00:00Z,29.1015,-89.9782,0.0,3.272,131.0,,'11111222,11111222,99999999' 
WAVCIS,ioos:station:WAVCIS:CSI09:1,2017-02-02T22:00:00Z,29.1015,-89.9782,0.0,3.006,143.0,,'11111222,11111222,99999999' 
WAVCIS,ioos:station:WAVCIS:CSI09:1,2017-02-02T23:00:00Z,29.1015,-89.9782,0.0,4.074,141.0,,'11111222,11111222,99999999' 
WAVCIS,ioos:station:WAVCIS:CSI09:1,2017-02-03T00:00:00Z,29.1015,-89.9782,0.0,3.854,139.0,,'11111222,11111222,99999999' 
WAVCIS,ioos:station:WAVCIS:CSI09:1,2017-02-03T01:00:00Z,29.1015,-89.9782,0.0,3.321,142.0,,'11111222,11111222,99999999' 
WAVCIS,ioos:station:WAVCIS:CSI09:1,2017-02-03T02:00:00Z,29.1015,-89.9782,0.0,4.09,141.0,,'11111222,11111222,99999999' 
WAVCIS,ioos:station:WAVCIS:CSI09:1,2017-02-03T03:00:00Z,29.1015,-89.9782,0.0,4.416,149.0,,'11111222,11111222,99999999' 
WAVCIS,ioos:station:WAVCIS:CSI09:1,2017-02-03T04:00:00Z,29.1015,-89.9782,0.0,3.614,140.0,,'11111222,11111222,99999999' 
WAVCIS,ioos:station:WAVCIS:CSI09:1,2017-02-03T05:00:00Z,29.1015,-89.9782,0.0,4.06,158.0,,'11111222,11111222,99999999' 
WAVCIS,ioos:station:WAVCIS:CSI09:1,2017-02-03T06:00:00Z,29.1015,-89.9782,0.0,3.542,169.0,,'11111222,11111222,99999999' 
WAVCIS,ioos:station:WAVCIS:CSI09:1,2017-02-03T07:00:00Z,29.1015,-89.9782,0.0,2.423,166.0,,'11111222,11111222,99999999' 
WAVCIS,ioos:station:WAVCIS:CSI09:1,2017-02-03T08:00:00Z,29.1015,-89.9782,0.0,0.156,27.0,,'11111222,11111222,99999999' 
WAVCIS,ioos:station:WAVCIS:CSI09:1,2017-02-03T09:00:00Z,29.1015,-89.9782,0.0,0.016,124.0,,'11111222,11111222,99999999' 
WAVCIS,ioos:station:WAVCIS:CSI09:1,2017-02-03T10:00:00Z,29.1015,-89.9782,0.0,0.658,235.0,,'11111222,11111222,99999999' 
WAVCIS,ioos:station:WAVCIS:CSI09:1,2017-02-03T11:00:00Z,29.1015,-89.9782,0.0,2.676,130.0,,'11111222,11111222,99999999' 
WAVCIS,ioos:station:WAVCIS:CSI09:1,2017-02-03T12:00:00Z,29.1015,-89.9782,0.0,0.644,134.0,,'11111222,11111222,99999999' 
WAVCIS,ioos:station:WAVCIS:CSI09:1,2017-02-03T13:00:00Z,29.1015,-89.9782,0.0,1.075,135.0,,'11111222,11111222,99999999' 
WAVCIS,ioos:station:WAVCIS:CSI09:1,2017-02-03T14:00:00Z,29.1015,-89.9782,0.0,0.066,177.0,,'11111222,11111222,99999999' 
WAVCIS,ioos:station:WAVCIS:CSI09:1,2017-02-03T15:00:00Z,29.1015,-89.9782,0.0,0.747,342.0,,'11111222,11111222,99999999' 
WAVCIS,ioos:station:WAVCIS:CSI09:1,2017-02-03T16:00:00Z,29.1015,-89.9782,0.0,8.55,7.0,,'11111222,11111222,99999999' 
WAVCIS,ioos:station:WAVCIS:CSI09:1,2017-02-03T17:00:00Z,29.1015,-89.9782,0.0,6.821,1.0,,'11111222,11111222,99999999' 
WAVCIS,ioos:station:WAVCIS:CSI09:1,2017-02-03T18:00:00Z,29.1015,-89.9782,0.0,7.54,7.0,,'11111222,11111222,99999999' 
WAVCIS,ioos:station:WAVCIS:CSI09:1,2017-02-03T19:00:00Z,29.1015,-89.9782,0.0,7.39,3.0,,'11111222,11111222,99999999' 
WAVCIS,ioos:station:WAVCIS:CSI09:1,2017-02-03T20:00:00Z,29.1015,-89.9782,0.0,9.54,356.0,,'11111222,11111222,99999999' 
WAVCIS,ioos:station:WAVCIS:CSI09:1,2017-02-03T21:00:00Z,29.1015,-89.9782,0.0,8.09,17.0,,'11111222,11111222,99999999' 
WAVCIS,ioos:station:WAVCIS:CSI09:1,2017-02-03T22:00:00Z,29.1015,-89.9782,0.0,8.31,23.0,,'11111222,11111222,99999999' 
WAVCIS,ioos:station:WAVCIS:CSI09:1,2017-02-03T23:00:00Z,29.1015,-89.9782,0.0,8.51,27.0,,'11111222,11111222,99999999' 
WAVCIS,ioos:station:WAVCIS:CSI09:1,2017-02-04T00:00:00Z,29.1015,-89.9782,0.0,8.12,19.0,,'11111222,11111222,99999999' 
WAVCIS,ioos:station:WAVCIS:CSI09:1,2017-02-04T01:00:00Z,29.1015,-89.9782,0.0,8.48,23.0,,'11111222,11111222,99999999' 
WAVCIS,ioos:station:WAVCIS:CSI09:1,2017-02-04T02:00:00Z,29.1015,-89.9782,0.0,8.42,26.0,,'11111222,11111222,99999999' 
WAVCIS,ioos:station:WAVCIS:CSI09:1,2017-02-04T03:00:00Z,29.1015,-89.9782,0.0,10.46,32.0,,'11111222,11111222,99999999' 
WAVCIS,ioos:station:WAVCIS:CSI09:1,2017-02-04T04:00:00Z,29.1015,-89.9782,0.0,11.3,30.0,,'11111222,11111222,99999999' 
WAVCIS,ioos:station:WAVCIS:CSI09:1,2017-02-04T05:00:00Z,29.1015,-89.9782,0.0,11.66,36.0,,'11111222,11111222,99999999' 
WAVCIS,ioos:station:WAVCIS:CSI09:1,2017-02-04T06:00:00Z,29.1015,-89.9782,0.0,10.5,43.0,,'11111222,11111222,99999999' 
WAVCIS,ioos:station:WAVCIS:CSI09:1,2017-02-04T07:00:00Z,29.1015,-89.9782,0.0,10.04,44.0,,'11111222,11111222,99999999' 
WAVCIS,ioos:station:WAVCIS:CSI09:1,2017-02-04T08:00:00Z,29.1015,-89.9782,0.0,10.09,46.0,,'11111222,11111222,99999999' 
WAVCIS,ioos:station:WAVCIS:CSI09:1,2017-02-04T09:00:00Z,29.1015,-89.9782,0.0,9.87,52.0,,'11111222,11111222,99999999' 
WAVCIS,ioos:station:WAVCIS:CSI09:1,2017-02-04T10:00:00Z,29.1015,-89.9782,0.0,9.87,54.0,,'11111222,11111222,99999999' 
WAVCIS,ioos:station:WAVCIS:CSI09:1,2017-02-04T11:00:00Z,29.1015,-89.9782,0.0,10.3,49.0,,'11111222,11111222,99999999' 
WAVCIS,ioos:station:WAVCIS:CSI09:1,2017-02-04T12:00:00Z,29.1015,-89.9782,0.0,10.63,60.0,,'11111222,11111222,99999999' 
WAVCIS,ioos:station:WAVCIS:CSI09:1,2017-02-04T13:00:00Z,29.1015,-89.9782,0.0,9.5,58.0,,'11111222,11111222,99999999' 
WAVCIS,ioos:station:WAVCIS:CSI09:1,2017-02-04T14:00:00Z,29.1015,-89.9782,0.0,8.91,59.0,,'11111222,11111222,99999999' 
WAVCIS,ioos:station:WAVCIS:CSI09:1,2017-02-04T15:00:00Z,29.1015,-89.9782,0.0,8.24,55.0,,'11111222,11111222,99999999' 
WAVCIS,ioos:station:WAVCIS:CSI09:1,2017-02-04T16:00:00Z,29.1015,-89.9782,0.0,8.68,63.0,,'11111222,11111222,99999999' 
WAVCIS,ioos:station:WAVCIS:CSI09:1,2017-02-04T17:00:00Z,29.1015,-89.9782,0.0,7.95,60.0,,'11111222,11111222,99999999' 
WAVCIS,ioos:station:WAVCIS:CSI09:1,2017-02-04T18:00:00Z,29.1015,-89.9782,0.0,6.162,61.0,,'11111222,11111222,99999999' 
WAVCIS,ioos:station:WAVCIS:CSI09:1,2017-02-04T19:00:00Z,29.1015,-89.9782,0.0,5.382,52.0,,'11111222,11111222,99999999' 
WAVCIS,ioos:station:WAVCIS:CSI09:1,2017-02-04T20:00:00Z,29.1015,-89.9782,0.0,5.948,48.0,,'11111222,11111222,99999999' 
WAVCIS,ioos:station:WAVCIS:CSI09:1,2017-02-04T21:00:00Z,29.1015,-89.9782,0.0,5.942,58.0,,'11111222,11111222,99999999' 
WAVCIS,ioos:station:WAVCIS:CSI09:1,2017-02-04T22:00:00Z,29.1015,-89.9782,0.0,5.117,68.0,,'11111222,11111222,99999999' 
WAVCIS,ioos:station:WAVCIS:CSI09:1,2017-02-04T23:00:00Z,29.1015,-89.9782,0.0,5.784,71.0,,'11111222,11111222,99999999' 
WAVCIS,ioos:station:WAVCIS:CSI09:1,2017-02-05T00:00:00Z,29.1015,-89.9782,0.0,5.256,69.0,,'11111222,11111222,99999999' 
WAVCIS,ioos:station:WAVCIS:CSI09:1,2017-02-05T01:00:00Z,29.1015,-89.9782,0.0,5.018,84.0,,'11111222,11111222,99999999' 
WAVCIS,ioos:station:WAVCIS:CSI09:1,2017-02-05T02:00:00Z,29.1015,-89.9782,0.0,4.542,89.0,,'11111222,11111222,99999999' 
WAVCIS,ioos:station:WAVCIS:CSI09:1,2017-02-05T03:00:00Z,29.1015,-89.9782,0.0,3.956,92.0,,'11111222,11111222,99999999' 
WAVCIS,ioos:station:WAVCIS:CSI09:1,2017-02-05T04:00:00Z,29.1015,-89.9782,0.0,4.775,84.0,,'11111222,11111222,99999999' 
WAVCIS,ioos:station:WAVCIS:CSI09:1,2017-02-05T05:00:00Z,29.1015,-89.9782,0.0,5.65,91.0,,'11111222,11111222,99999999' 
WAVCIS,ioos:station:WAVCIS:CSI09:1,2017-02-05T06:00:00Z,29.1015,-89.9782,0.0,5.08,93.0,,'11111222,11111222,99999999' 
WAVCIS,ioos:station:WAVCIS:CSI09:1,2017-02-05T07:00:00Z,29.1015,-89.9782,0.0,4.935,82.0,,'11111222,11111222,99999999' 
WAVCIS,ioos:station:WAVCIS:CSI09:1,2017-02-05T08:00:00Z,29.1015,-89.9782,0.0,5.099,85.0,,'11111222,11111222,99999999' 
WAVCIS,ioos:station:WAVCIS:CSI09:1,2017-02-05T09:00:00Z,29.1015,-89.9782,0.0,5.728,84.0,,'11111222,11111222,99999999' 
WAVCIS,ioos:station:WAVCIS:CSI09:1,2017-02-05T10:00:00Z,29.1015,-89.9782,0.0,6.254,84.0,,'11111222,11111222,99999999' 
WAVCIS,ioos:station:WAVCIS:CSI09:1,2017-02-05T11:00:00Z,29.1015,-89.9782,0.0,4.775,105.0,,'11111222,11111222,99999999' 
WAVCIS,ioos:station:WAVCIS:CSI09:1,2017-02-05T12:00:00Z,29.1015,-89.9782,0.0,4.291,100.0,,'11111222,11111222,99999999' 
WAVCIS,ioos:station:WAVCIS:CSI09:1,2017-02-05T13:00:00Z,29.1015,-89.9782,0.0,5.257,120.0,,'11111222,11111222,99999999' 
WAVCIS,ioos:station:WAVCIS:CSI09:1,2017-02-05T14:00:00Z,29.1015,-89.9782,0.0,2.687,100.0,,'11111222,11111222,99999999' 
WAVCIS,ioos:station:WAVCIS:CSI09:1,2017-02-05T15:00:00Z,29.1015,-89.9782,0.0,3.096,127.0,,'11111222,11111222,99999999' 
WAVCIS,ioos:station:WAVCIS:CSI09:1,2017-02-05T16:00:00Z,29.1015,-89.9782,0.0,4.884,143.0,,'11111222,11111222,99999999' 
WAVCIS,ioos:station:WAVCIS:CSI09:1,2017-02-05T17:00:00Z,29.1015,-89.9782,0.0,3.515,143.0,,'11111222,11111222,99999999' 
WAVCIS,ioos:station:WAVCIS:CSI09:1,2017-02-05T18:00:00Z,29.1015,-89.9782,0.0,4.506,170.0,,'11111222,11111222,99999999' 
WAVCIS,ioos:station:WAVCIS:CSI09:1,2017-02-05T19:00:00Z,29.1015,-89.9782,0.0,2.029,197.0,,'11111222,11111222,99999999' 
WAVCIS,ioos:station:WAVCIS:CSI09:1,2017-02-05T20:00:00Z,29.1015,-89.9782,0.0,4.048,171.0,,'11111222,11111222,99999999' 
WAVCIS,ioos:station:WAVCIS:CSI09:1,2017-02-05T21:00:00Z,29.1015,-89.9782,0.0,3.519,167.0,,'11111222,11111222,99999999' 
WAVCIS,ioos:station:WAVCIS:CSI09:1,2017-02-05T22:00:00Z,29.1015,-89.9782,0.0,1.983,175.0,,'11111222,11111222,99999999' 
WAVCIS,ioos:station:WAVCIS:CSI09:1,2017-02-05T23:00:00Z,29.1015,-89.9782,0.0,1.903,167.0,,'11111222,11111222,99999999' 
WAVCIS,ioos:station:WAVCIS:CSI09:1,2017-02-06T00:00:00Z,29.1015,-89.9782,0.0,0.354,121.0,,'11111222,11111222,99999999' 
WAVCIS,ioos:station:WAVCIS:CSI09:1,2017-02-06T01:00:00Z,29.1015,-89.9782,0.0,1.728,115.0,,'11111222,11111222,99999999' 
WAVCIS,ioos:station:WAVCIS:CSI09:1,2017-02-06T02:00:00Z,29.1015,-89.9782,0.0,2.342,130.0,,'11111222,11111222,99999999' 
WAVCIS,ioos:station:WAVCIS:CSI09:1,2017-02-06T03:00:00Z,29.1015,-89.9782,0.0,3.526,145.0,,'11111222,11111222,99999999' 
WAVCIS,ioos:station:WAVCIS:CSI09:1,2017-02-06T04:00:00Z,29.1015,-89.9782,0.0,4.162,153.0,,'11111222,11111222,99999999' 
WAVCIS,ioos:station:WAVCIS:CSI09:1,2017-02-06T05:00:00Z,29.1015,-89.9782,0.0,4.306,160.0,,'11111222,11111222,99999999' 
WAVCIS,ioos:station:WAVCIS:CSI09:1,2017-02-06T06:00:00Z,29.1015,-89.9782,0.0,4.889,158.0,,'11111222,11111222,99999999' 
WAVCIS,ioos:station:WAVCIS:CSI09:1,2017-02-06T07:00:00Z,29.1015,-89.9782,0.0,4.292,162.0,,'11111222,11111222,99999999' 
WAVCIS,ioos:station:WAVCIS:CSI09:1,2017-02-06T08:00:00Z,29.1015,-89.9782,0.0,3.915,162.0,,'11111222,11111222,99999999' 
WAVCIS,ioos:station:WAVCIS:CSI09:1,2017-02-06T09:00:00Z,29.1015,-89.9782,0.0,3.754,151.0,,'11111222,11111222,99999999' 
WAVCIS,ioos:station:WAVCIS:CSI09:1,2017-02-06T10:00:00Z,29.1015,-89.9782,0.0,5.094,142.0,,'11111222,11111222,99999999' 
WAVCIS,ioos:station:WAVCIS:CSI09:1,2017-02-06T11:00:00Z,29.1015,-89.9782,0.0,6.062,149.0,,'11111222,11111222,99999999' 
WAVCIS,ioos:station:WAVCIS:CSI09:1,2017-02-06T12:00:00Z,29.1015,-89.9782,0.0,5.41,155.0,,'11111222,11111222,99999999' 
WAVCIS,ioos:station:WAVCIS:CSI09:1,2017-02-06T13:00:00Z,29.1015,-89.9782,0.0,5.272,148.0,,'11111222,11111222,99999999' 
WAVCIS,ioos:station:WAVCIS:CSI09:1,2017-02-06T14:00:00Z,29.1015,-89.9782,0.0,5.44,145.0,,'11111222,11111222,99999999' 
WAVCIS,ioos:station:WAVCIS:CSI09:1,2017-02-06T15:00:00Z,29.1015,-89.9782,0.0,6.49,141.0,,'11111222,11111222,99999999' 
WAVCIS,ioos:station:WAVCIS:CSI09:1,2017-02-06T16:00:00Z,29.1015,-89.9782,0.0,5.619,142.0,,'11111222,11111222,99999999' 
WAVCIS,ioos:station:WAVCIS:CSI09:1,2017-02-06T17:00:00Z,29.1015,-89.9782,0.0,4.275,156.0,,'11111222,11111222,99999999' 
WAVCIS,ioos:station:WAVCIS:CSI09:1,2017-02-06T18:00:00Z,29.1015,-89.9782,0.0,5.112,157.0,,'11111222,11111222,99999999' 
WAVCIS,ioos:station:WAVCIS:CSI09:1,2017-02-06T19:00:00Z,29.1015,-89.9782,0.0,5.443,149.0,,'11111222,11111222,99999999' 
WAVCIS,ioos:station:WAVCIS:CSI09:1,2017-02-06T20:00:00Z,29.1015,-89.9782,0.0,4.619,149.0,,'11111222,11111222,99999999' 
WAVCIS,ioos:station:WAVCIS:CSI09:1,2017-02-06T21:00:00Z,29.1015,-89.9782,0.0,4.87,150.0,,'11111222,11111222,99999999' 
WAVCIS,ioos:station:WAVCIS:CSI09:1,2017-02-06T22:00:00Z,29.1015,-89.9782,0.0,5.154,148.0,,'11111222,11111222,99999999' 
WAVCIS,ioos:station:WAVCIS:CSI09:1,2017-02-06T23:00:00Z,29.1015,-89.9782,0.0,5.407,154.0,,'11111222,11111222,99999999' 
WAVCIS,ioos:station:WAVCIS:CSI09:1,2017-02-07T00:00:00Z,29.1015,-89.9782,0.0,5.436,150.0,,'11111222,11111222,99999999' 
WAVCIS,ioos:station:WAVCIS:CSI09:1,2017-02-07T01:00:00Z,29.1015,-89.9782,0.0,5.498,151.0,,'11111222,11111222,99999999' 
WAVCIS,ioos:station:WAVCIS:CSI09:1,2017-02-07T02:00:00Z,29.1015,-89.9782,0.0,6.453,153.0,,'11111222,11111222,99999999' 
WAVCIS,ioos:station:WAVCIS:CSI09:1,2017-02-07T03:00:00Z,29.1015,-89.9782,0.0,6.263,163.0,,'11111222,11111222,99999999' 
WAVCIS,ioos:station:WAVCIS:CSI09:1,2017-02-07T04:00:00Z,29.1015,-89.9782,0.0,7.13,160.0,,'11111222,11111222,99999999' 
WAVCIS,ioos:station:WAVCIS:CSI09:1,2017-02-07T05:00:00Z,29.1015,-89.9782,0.0,7.86,164.0,,'11111222,11111222,99999999' 
WAVCIS,ioos:station:WAVCIS:CSI09:1,2017-02-07T06:00:00Z,29.1015,-89.9782,0.0,7.2,167.0,,'11111222,11111222,99999999' 
WAVCIS,ioos:station:WAVCIS:CSI09:1,2017-02-07T07:00:00Z,29.1015,-89.9782,0.0,7.17,157.0,,'11111222,11111222,99999999' 
WAVCIS,ioos:station:WAVCIS:CSI09:1,2017-02-07T08:00:00Z,29.1015,-89.9782,0.0,6.79,168.0,,'11111222,11111222,99999999' 
WAVCIS,ioos:station:WAVCIS:CSI09:1,2017-02-07T09:00:00Z,29.1015,-89.9782,0.0,6.459,170.0,,'11111222,11111222,99999999' 
WAVCIS,ioos:station:WAVCIS:CSI09:1,2017-02-07T10:00:00Z,29.1015,-89.9782,0.0,7.12,173.0,,'11111222,11111222,99999999' 
WAVCIS,ioos:station:WAVCIS:CSI09:1,2017-02-07T11:00:00Z,29.1015,-89.9782,0.0,6.758,170.0,,'11111222,11111222,99999999' 
WAVCIS,ioos:station:WAVCIS:CSI09:1,2017-02-07T12:00:00Z,29.1015,-89.9782,0.0,7.22,176.0,,'11111222,11111222,99999999' 
WAVCIS,ioos:station:WAVCIS:CSI09:1,2017-02-07T13:00:00Z,29.1015,-89.9782,0.0,7.99,177.0,,'11111222,11111222,99999999' 
WAVCIS,ioos:station:WAVCIS:CSI09:1,2017-02-07T14:00:00Z,29.1015,-89.9782,0.0,8.94,179.0,,'11111222,11111222,99999999' 
WAVCIS,ioos:station:WAVCIS:CSI09:1,2017-02-07T15:00:00Z,29.1015,-89.9782,0.0,6.707,182.0,,'11111222,11111222,99999999' 
WAVCIS,ioos:station:WAVCIS:CSI09:1,2017-02-07T16:00:00Z,29.1015,-89.9782,0.0,4.314,192.0,,'11111222,11111222,99999999' 
WAVCIS,ioos:station:WAVCIS:CSI09:1,2017-02-07T17:00:00Z,29.1015,-89.9782,0.0,4.896,198.0,,'11111222,11111222,99999999' 
WAVCIS,ioos:station:WAVCIS:CSI09:1,2017-02-07T18:00:00Z,29.1015,-89.9782,0.0,7.14,204.0,,'11111222,11111222,99999999' 
WAVCIS,ioos:station:WAVCIS:CSI09:1,2017-02-07T19:00:00Z,29.1015,-89.9782,0.0,10.07,203.0,,'11111222,11111222,99999999' 
WAVCIS,ioos:station:WAVCIS:CSI09:1,2017-02-07T20:00:00Z,29.1015,-89.9782,0.0,9.65,207.0,,'11111222,11111222,99999999' 
WAVCIS,ioos:station:WAVCIS:CSI09:1,2017-02-07T21:00:00Z,29.1015,-89.9782,0.0,6.653,210.0,,'11111222,11111222,99999999' 
WAVCIS,ioos:station:WAVCIS:CSI09:1,2017-02-07T22:00:00Z,29.1015,-89.9782,0.0,5.963,206.0,,'11111222,11111222,99999999' 
WAVCIS,ioos:station:WAVCIS:CSI09:1,2017-02-07T23:00:00Z,29.1015,-89.9782,0.0,8.4,221.0,,'11111222,11111222,99999999' 
WAVCIS,ioos:station:WAVCIS:CSI09:1,2017-02-08T00:00:00Z,29.1015,-89.9782,0.0,10.9,225.0,,'11111222,11111222,99999999' 
WAVCIS,ioos:station:WAVCIS:CSI09:1,2017-02-08T01:00:00Z,29.1015,-89.9782,0.0,9.76,229.0,,'11111222,11111222,99999999' 
WAVCIS,ioos:station:WAVCIS:CSI09:1,2017-02-08T02:00:00Z,29.1015,-89.9782,0.0,8.68,224.0,,'11111222,11111222,99999999' 
WAVCIS,ioos:station:WAVCIS:CSI09:1,2017-02-08T03:00:00Z,29.1015,-89.9782,0.0,8.73,229.0,,'11111222,11111222,99999999' 
WAVCIS,ioos:station:WAVCIS:CSI09:1,2017-02-08T04:00:00Z,29.1015,-89.9782,0.0,8.23,225.0,,'11111222,11111222,99999999' 
WAVCIS,ioos:station:WAVCIS:CSI09:1,2017-02-08T05:00:00Z,29.1015,-89.9782,0.0,8.21,233.0,,'11111222,11111222,99999999' 
WAVCIS,ioos:station:WAVCIS:CSI09:1,2017-02-08T06:00:00Z,29.1015,-89.9782,0.0,8.03,236.0,,'11111222,11111222,99999999' 
WAVCIS,ioos:station:WAVCIS:CSI09:1,2017-02-08T07:00:00Z,29.1015,-89.9782,0.0,7.61,231.0,,'11111222,11111222,99999999' 
WAVCIS,ioos:station:WAVCIS:CSI09:1,2017-02-08T08:00:00Z,29.1015,-89.9782,0.0,6.944,225.0,,'11111222,11111222,99999999' 
WAVCIS,ioos:station:WAVCIS:CSI09:1,2017-02-08T09:00:00Z,29.1015,-89.9782,0.0,4.626,209.0,,'11111222,11111222,99999999' 
WAVCIS,ioos:station:WAVCIS:CSI09:1,2017-02-08T10:00:00Z,29.1015,-89.9782,0.0,7.19,228.0,,'11111222,11111222,99999999' 
WAVCIS,ioos:station:WAVCIS:CSI09:1,2017-02-08T11:00:00Z,29.1015,-89.9782,0.0,4.494,216.0,,'11111222,11111222,99999999' 
WAVCIS,ioos:station:WAVCIS:CSI09:1,2017-02-08T12:00:00Z,29.1015,-89.9782,0.0,4.463,232.0,,'11111222,11111222,99999999' 
WAVCIS,ioos:station:WAVCIS:CSI09:1,2017-02-08T13:00:00Z,29.1015,-89.9782,0.0,4.848,211.0,,'11111222,11111222,99999999' 
WAVCIS,ioos:station:WAVCIS:CSI09:1,2017-02-08T14:00:00Z,29.1015,-89.9782,0.0,5.508,237.0,,'11111222,11111222,99999999' 
WAVCIS,ioos:station:WAVCIS:CSI09:1,2017-02-08T15:00:00Z,29.1015,-89.9782,0.0,5.636,219.0,,'11111222,11111222,99999999' 
WAVCIS,ioos:station:WAVCIS:CSI09:1,2017-02-08T16:00:00Z,29.1015,-89.9782,0.0,4.776,211.0,,'11111222,11111222,99999999' 
WAVCIS,ioos:station:WAVCIS:CSI09:1,2017-02-08T17:00:00Z,29.1015,-89.9782,0.0,6.479,208.0,,'11111222,11111222,99999999' 
WAVCIS,ioos:station:WAVCIS:CSI09:1,2017-02-08T18:00:00Z,29.1015,-89.9782,0.0,5.707,206.0,,'11111222,11111222,99999999' 
WAVCIS,ioos:station:WAVCIS:CSI09:1,2017-02-08T19:00:00Z,29.1015,-89.9782,0.0,5.884,211.0,,'11111222,11111222,99999999' 
WAVCIS,ioos:station:WAVCIS:CSI09:1,2017-02-08T20:00:00Z,29.1015,-89.9782,0.0,5.594,210.0,,'11111222,11111222,99999999' 
WAVCIS,ioos:station:WAVCIS:CSI09:1,2017-02-08T21:00:00Z,29.1015,-89.9782,0.0,5.663,210.0,,'11111222,11111222,99999999' 
WAVCIS,ioos:station:WAVCIS:CSI09:1,2017-02-08T22:00:00Z,29.1015,-89.9782,0.0,7.95,220.0,,'11111222,11111222,99999999' 
WAVCIS,ioos:station:WAVCIS:CSI09:1,2017-02-08T23:00:00Z,29.1015,-89.9782,0.0,8.4,225.0,,'11111222,11111222,99999999' 
WAVCIS,ioos:station:WAVCIS:CSI09:1,2017-02-09T00:00:00Z,29.1015,-89.9782,0.0,6.726,229.0,,'11111222,11111222,99999999' 
WAVCIS,ioos:station:WAVCIS:CSI09:1,2017-02-09T01:00:00Z,29.1015,-89.9782,0.0,5.28,217.0,,'11111222,11111222,99999999' 
WAVCIS,ioos:station:WAVCIS:CSI09:1,2017-02-09T02:00:00Z,29.1015,-89.9782,0.0,6.849,220.0,,'11111222,11111222,99999999' 
WAVCIS,ioos:station:WAVCIS:CSI09:1,2017-02-09T03:00:00Z,29.1015,-89.9782,0.0,8.82,238.0,,'11111222,11111222,99999999' 
WAVCIS,ioos:station:WAVCIS:CSI09:1,2017-02-09T04:00:00Z,29.1015,-89.9782,0.0,9.1,240.0,,'11111222,11111222,99999999' 
WAVCIS,ioos:station:WAVCIS:CSI09:1,2017-02-09T05:00:00Z,29.1015,-89.9782,0.0,7.63,255.0,,'11111222,11111222,99999999' 
WAVCIS,ioos:station:WAVCIS:CSI09:1,2017-02-09T06:00:00Z,29.1015,-89.9782,0.0,6.943,273.0,,'11111222,11111222,99999999' 
WAVCIS,ioos:station:WAVCIS:CSI09:1,2017-02-09T07:00:00Z,29.1015,-89.9782,0.0,7.33,262.0,,'11111222,11111222,99999999' 